Location: Amsterdam
(30.7274°N, 84.4357°W)
Time: 21:18:41
(UTC+00:00)

Explorer 11/Cluster Stage 4 - Pass Details

Date: 17 February 2026
Orbit: 463 x 1176 km, 28.8° (Epoch: 7 March)

Event Time Altitude Azimuth Distance (km) Brightness Sun altitude
Rises 22:04:18 0° 271° (W) 2,481 10.4 16.0°
Reaches altitude 10° 22:06:29 10° 265° (W) 1,598 9.9 15.6°
Maximum altitude 22:09:56 47° 191° (S) 625 6.7 14.9°
Drops below altitude 10° 22:13:36 10° 116° (ESE) 1,694 8.0 14.2°
Sets 22:16:00 0° 110° (ESE) 2,652 8.9 13.7°
